Regional Weather Roundup
Issued by NWS

Home | Current Version | Previous Version | Graphics & Text | Print | Product List | Glossary On
Versions: 1 2 3 4 5 6 7 8 9 10 11 12 13 14 15 16 17 18 19 20 21 22 23 24 25 26 27 28 29 30 31 32 33 34 35 36 37 38 39 40 41 42 43 44 45 46 47 48 49 50
000
ASUS43 KTOP 272259
RWRKS

WEATHER ROUNDUP FOR KANSAS
NATIONAL WEATHER SERVICE GOODLAND KS
600 PM CDT FRI MAY 27 2016

NOTE:  "FAIR" INDICATES FEW OR NO CLOUDS BELOW 12,000 FEET WITH NO
SIGNIFICANT WEATHER AND/OR OBSTRUCTIONS TO VISIBILITY.

KSZ001>006-013>018-027>032-041>047-280000-
NORTHWEST KANSAS

CITY           SKY/WX    TMP DP  RH WIND       PRES   REMARKS
GOODLAND       PTSUNNY   62  53  72 NE12      29.74R
HAYS           PTSUNNY   48 N/A N/A N17       29.63F
HILL CITY      PTSUNNY   64  59  83 NE9       29.68F
RUSSELL        CLOUDY    75  64  68 NE9       29.61F
$$

KSZ061>065-074>080-084>089-280000-
SOUTHWEST KANSAS

CITY           SKY/WX    TMP DP  RH WIND       PRES   REMARKS
DODGE CITY     PTSUNNY   72  45  37 S13       29.63F
ELKHART          N/A     67  46  47 W20         N/A
GARDEN CITY    CLOUDY    71  42  35 SW16      29.64R
GREAT BEND     SUNNY     75  57  53 W7        29.62R
LIBERAL        PTSUNNY   70  43  37 W20G28    29.68S
$$

KSZ066>073-081>083-090>101-280000-
SOUTHEAST KANSAS

CITY           SKY/WX    TMP DP  RH WIND       PRES   REMARKS
CHANUTE        CLOUDY    76  64  66 S16       29.68S
COFFEYVILLE    CLOUDY    76  67  73 S12       29.67F
HUTCHINSON     CLOUDY    70  62  76 E16G24    29.65R
MEDICINE LODGE   N/A     81  50  33 SW9       29.62F
NEWTON         CLOUDY    61  55  82 E10       29.72F
PARSONS        CLOUDY    76  67  73 S9G20     29.69S
WICHITA INTL   LGT RAIN  66  62  87 N5        29.65F
WICHITA JABRA  CLOUDY    62  61  96 E6        29.66F
WINFIELD       CLOUDY    66  59  78 N5        29.66F
$$

KSZ007>012-019>026-033>040-048>060-102>105-280000-
NORTHEAST KANSAS

CITY           SKY/WX    TMP DP  RH WIND       PRES   REMARKS
CONCORDIA      CLOUDY    73  64  73 S9        29.61F
EMPORIA        PTSUNNY   72  63  73 SE10      29.67R
LAWRENCE       LGT RAIN  73  65  75 S10       29.68F
MANHATTAN      CLOUDY    73  65  75 S6        29.67R
OLATHE IND     CLOUDY    70  61  73 SE5       29.69F
OLATHE EXE     CLOUDY    72  60  66 S6        29.70F
SALINA         PTSUNNY   71  65  81 S7        29.64F
TOPEKA BILLARD CLOUDY    73  66  78 SE7       29.69R
TOPEKA FORBES  CLOUDY    73  67  81 E6        29.69R
$$




USA.gov is the U.S. government's official web portal to all federal, state and local government web resources and services.